CZ-4C DEB, 43338

Orbit data source: Space-Track

CZ-4C DEB, 43338 is space debris in LEO originally from a launch on Tue, 10 Apr 2018 UTC launched from the Jiuquan Satellite Launch Center, China (JSC). Debris objects in space refer to the collection of defunct objects orbiting the Earth. Examples of debris include non-operational satellites, rocket bodies, and fragments generated from explosions, collisions, or faulty payload assembly.

Loading next visibility...
Identifier
43338, 2018-034H
Orbit
LEO
Country
Flag of CNCN / PRC
Related business
Manufacturer
Unknown
Mission
Spacecraft
Bus & Motor
Unknown
Mass
Unknown
Launch date (UTC)
2018-04-10 (8 years ago)
Launch vehicle
Unknown
Launch site
Jiuquan Satellite Launch Center, China (JSC)
Object type
Payload
Rocket body
Debris
Shape & HBR
Unknown shape, 0.1 m
Radar Cross Section
Small (<0.1 m²)

Expand to show TLE details & history
Last TLE update: 3 days ago

TLE from 3 days ago
0 CZ-4C DEB
1 43338U 18034H   26170.38861243 -.00000067  00000-0  32098-4 0  9998
2 43338  63.3944  94.1108 0275172   8.2741 352.2687 13.44724221402156
Epoch: 2026-06-19T09:19Z
TLE epoch observation values (Epoch: 2026-06-19T09:19:36.113Z)
Latitude
-0.00001°
Longitude
46.59203°
Altitude
889.905 km
Speed
7.508 km/s
True Right ascension
06h 16m 26s
True Declination
0° 00' 00"
Sunlit
Object was in daylight at epoch
Visualization orbit readout
Latitude
Unknown
Longitude
Unknown
Altitude
Unknown
Speed
Unknown
Apparent Right ascension
Unknown
Apparent Declination
Unknown
Sunlit
N/A
Visualization observer readout
Local Sidereal Time
21:37:15
Azimuth
Unknown
Elevation
Unknown
Doppler factor
Unknown
Orbital elements
Apogee altitude
1,296.08 km
Perigee altitude
885.044 km
Semi-major axis
7,468.699 km
Eccentricity
0.02752
Inclination
63.3944°
RAAN
94.1108°
Arg. of periapsis
8.2741°
True anomaly
351.82956°
Mean anomaly
352.2687°
Eccentric anomaly
352.05066°
Mean motion
3.3626 °/min
Orbital period
107.06 mins
BSTAR
0.000032098
Loading maneuver chart data...
Computing Atmospheric mass density...
Loading historical data...
Loading historical data...
Loading historical data...
Loading historical data...
Loading historical data...
Loading historical data...
Loading historical data...

Documentation

Showing up to 5 results
|